Orbital Elements at Epoch 2459200.5 (2020-Dec-17.0) TDB
Reference: JPL 23 (heliocentric ecliptic J2000)
Element | Value | Uncertainty (1-sigma) | Units |
e | .2044079658300078 | 4.0572e-08 | |
a | 2.719971258768664 | 1.2302e-08 | au |
q | 2.163987466647675 | 1.1087e-07 | au |
i | 7.594319867844628 | 4.6467e-06 | deg |
node | 152.9294273484489 | 2.529e-05 | deg |
peri | 338.525087337197 | 2.6628e-05 | deg |
M | 236.2987875234495 | 8.7239e-06 | deg |
tp | 2459763.510319313781 (2022-Jul-03.01031931) | 4.1309e-05 | TDB |
period | 1638.494165862626 4.49 | 1.1116e-05 3.043e-08 | d yr |
n | .219713934599498 | 1.4906e-09 | deg/d |
Q | 3.275955050889652 | 1.4816e-08 | au |
|
| | Orbit Determination Parameters
Additional Information
|